Location: Shenandoah County Park
(38.9356°N, 78.4524°W)
Time: 06:18:12
(UTC-04:00)

Transit 2A - Pass Details

Date: 22 June 2024
Orbit: 591 x 960 km, 66.7° (Epoch: 23 July)

Event Time Altitude Azimuth Distance (km) Brightness Sun altitude
Rises 23:19:58 0° 343° (NNW) 3,517 10.8 -22.0°
Reaches altitude 10° 23:23:28 10° 4° (N) 2,627 9.6 -22.3°
Maximum altitude 23:27:18 17° 42° (NE) 2,217 8.6 -22.6°
Drops below altitude 10° 23:31:12 10° 81° (E) 2,688 8.6 -23.0°
Enters shadow 23:31:53 - 86° (E) 2,840 8.7 -23.0°
